Location: ČR
(50.0000°N, 15.0000°E)
Time: 06:59:49
(UTC+02:00)

A-11 Canister half - Pass Details

Date: 18 March 2026
Orbit: 1514 x 1685 km, 47.2° (Epoch: 18 April)

Event Time Altitude Azimuth Distance (km) Brightness Sun altitude
Rises 19:00:20 0° 287° (WNW) 4,927 13.9 -8.9°
Reaches altitude 10° 19:03:39 10° 282° (WNW) 3,946 12.8 -9.5°
Maximum altitude 19:13:05 46° 214° (SW) 2,159 10.0 -10.9°
Drops below altitude 10° 19:22:27 10° 146° (SE) 3,914 10.7 -12.4°
Enters shadow 19:24:18 - 142° (SE) 4,449 10.9 -12.7°
Sets 19:25:45 0° 140° (SE) 4,884 - -12.9°
